Regional Weather Roundup
Issued by NWS Green Bay, WI

Current Version | Previous Version | Text Only | Print | Product List | Glossary On
Versions: 1 2 3 4 5 6 7 8 9 10 11 12 13 14 15 16 17 18 19 20 21 22 23 24 25 26 27 28 29 30 31 32 33 34 35 36 37 38 39 40 41 42 43 44 45 46 47 48 49 50
000
ASUS43 KGRB 270711
RWRGRB

NORTH-CENTRAL AND NORTHEAST WISCONSIN REGIONAL WEATHER ROUNDUP
NATIONAL WEATHER SERVICE GREEN BAY WI
200 AM CDT MON MAR 27 2017

WIZ005-009-010>012-018-019-270800-
NORTH CENTRAL WISCONSIN

CITY           SKY/WX    TMP DP  RH WIND       PRES   REMARKS
IRONWOOD       FOG       32  31  96 NW5       29.91F VSB 1/4
MANITOWISH WTR CLOUDY    31  31 100 N3        29.86F
ARBOR VITAE    CLOUDY    34  33  96 N6        29.85F
EAGLE RIVER    CLOUDY    32  32 100 N6        29.85F
LAND O LAKES   CLOUDY    33  33 100 NW3       29.88S
RHINELANDER    CLOUDY    35  34  96 NW3       29.86F
PHILLIPS       CLOUDY    32  32 100 CALM      29.88S
ANTIGO         CLOUDY    35  35 100 NW3       29.85F
TOMAHAWK       CLOUDY    33  32  96 NW3       29.87F
MERRILL        CLOUDY    37  37 100 CALM      29.87F
$$

WIZ013-073-270800-
NORTHEAST WISCONSIN

CITY           SKY/WX    TMP DP  RH WIND       PRES   REMARKS
IRON MOUNTAIN  CLOUDY    35  32  88 NW7       29.85S
MARINETTE        N/A    N/A N/A N/A MISG        N/A
OCONTO         CLOUDY    36  35  99 CALM      29.86F
$$

WIZ017-030-035>037-045-270800-
CENTRAL WISCONSIN

CITY           SKY/WX    TMP DP  RH WIND       PRES   REMARKS
MEDFORD        CLOUDY    35  35  98 N5        29.86F FOG
WAUSAU         CLOUDY    38  37  97 NW3       29.85F
MOSINEE        CLOUDY    36  36 100 NW6       29.87F
MARSHFIELD     CLOUDY    38  37  97 N6        29.86F
WISC RAPIDS    FOG       39  39 100 NW3       29.88F VSB 3/4
STEVENS POINT  CLOUDY    37  37 100 N3        29.87F
WAUPACA        CLOUDY    39  38  96 CALM      29.87F
SHAWANO        CLOUDY    38  37  93 CALM      29.87F
CLINTONVILLE   CLOUDY    36  36 100 CALM      29.87F
WAUTOMA        FOG       39  37  93 SW3       29.88F VSB 1
$$

WIZ038-039-048-051-270800-
FOX VALLEY

CITY           SKY/WX    TMP DP  RH WIND       PRES   REMARKS
NWS GREEN BAY  CLOUDY    38  38 100 NW5       29.87F
APPLETON       CLOUDY    36  36 100 W5        29.85F
OSHKOSH        CLOUDY    38  36  92 NW5       29.87S
FOND DU LAC    LGT RAIN  39  36  89 NW5       29.87F
$$

WIZ022-050-052-270800-
EAST CENTRAL WISCONSIN

CITY           SKY/WX    TMP DP  RH WIND       PRES   REMARKS
EPHRAIM        FOG       34  34 100 NW6       29.85S VSB 1/2
WASHINGTON ISL CLOUDY    34  33  99 N5        29.85S
STURGEON BAY   MIX PCPN  34  34 100 NW6       29.86F VSB 3/4
MANITOWOC      CLOUDY    37  35  92 NW7       29.86F
SHEBOYGAN      CLOUDY    38  36  92 W6        29.87R
$$

LMZ563-521-522-541>543-270800-
LAKESHORE

STATION/POSITION TIME  TEMP    WIND        PRES    VSBY  WAVE
                       AIR SEA DIR/SP/G                  HT/PER
                 (UTC) (F)     (DEG/KT/KT) (MB)    (MI)  (FT/S)
SHEBOYGAN LKSHOR 0700   39     280/  5/  6 1011.8S
KEWAUNEE LKSHORE 0648   36     330/  2/  5 1010.8F
NORTHPORT PIER   0640   34     300/  4/  7 1011.2S
CHAMBERS ISLAND  0640   35     270/  5/  6 1011.2S
MENOMINEE LKSHOR 0648   36     280/  5/  8 1010.5F
$$



USA.gov is the U.S. government's official web portal to all federal, state and local government web resources and services.